[[{"header":{"parameterUnit":"m.s-1","parameterCategory":1,"la1":30.2991,"la2":30.254,"lo1":-89.0895,"lo2":-89.0444,"dy":0.0017,"dx":0.0017,"nx":28,"ny":28,"refTime":"2023-10-29T21:00:00:Z","depth":0,"parameterNumber":2,"parameterNumberName":"U-component_of_WINDS"},"data":[0,0,0,0,0,0,0,0,0,0,0,0,0,0,0,0,0,0,0,0,0,0,0,0,0,0,0,0,0,0,0,0,0,0,0,0,0,0,0,0,0,0,0,0,0,0,0,0,0,0,0,0,0,0,0,0,0,0,0.1133,0.1134,0,0.1158,0.1159,0.1159,0.1188,0.1189,0.1189,0.119,0.1214,0.1214,0.1214,0,0,0,0,0,0,0,0,0,0,0,0,0,0.1111,0.1111,0.1133,0.1134,0.1134,0.1158,0.1159,0.1159,0.1188,0.1189,0.1189,0.119,0.1214,0.1214,0.1214,0,0,0,0,0,0,0,0,0,0,0,0,0,0.1126,0.1111,0.1133,0.1152,0.1154,0.1158,0.1159,0.1159,0.1188,0.1189,0.119,0.119,0.1213,0.1214,0.1214,0.1202,0,0,0.1215,0.1215,0,0,0,0,0,0,0,0,0.1126,0.1127,0.1149,0.115,0.1153,0.1171,0.1159,0.1173,0.1188,0.1175,0.119,0.1191,0.1199,0.12,0.1203,0.1203,0.1204,0.1215,0.1215,0.1215,0.1215,0,0,0,0,0,0,0,0.1124,0.1126,0.1143,0.1149,0.1151,0.1158,0.1161,0.1162,0.1183,0.1176,0.1178,0.1181,0.12,0.1203,0.1204,0.1205,0.1215,0.1215,0.1215,0.1216,0.1197,0.1196,0,0,0,0,0,0,0.1121,0.1125,0.1142,0.1144,0.1141,0.1158,0.1162,0.1164,0.1183,0.1186,0.118,0.1182,0.1202,0.1204,0.1205,0.1193,0.1215,0.1216,0.1216,0.1197,0.1196,0.1196,0,0,0,0,0,0,0.112,0.1122,0.1141,0.1135,0.1138,0.1158,0.1161,0.1164,0.1168,0.1186,0.119,0.118,0.1203,0.1205,0.1203,0.1194,0.1216,0.1216,0.1198,0.1197,0.1196,0.1167,0,0,0,0,0,0,0.1119,0.1122,0.1117,0.1135,0.1138,0.1139,0.116,0.1164,0.1168,0.1171,0.1186,0.119,0.1203,0.1202,0.1203,0.1195,0.1216,0.1199,0.1198,0.1196,0.1169,0.1165,0.1162,0,0,0,0,0,0.1118,0.1108,0.1117,0.1119,0.1134,0.1138,0.114,0.1157,0.1167,0.1163,0.1175,0.1189,0.1195,0.1202,0.1203,0.1195,0.12,0.1198,0.1196,0.1171,0.1166,0.1162,0,0,0,0,0,0,0.1088,0.111,0.1121,0.1116,0.1125,0.1143,0.1138,0.1151,0.1157,0.116,0.118,0.1183,0.1179,0.1187,0.1194,0.1184,0.1199,0.1198,0.1179,0.1175,0.1172,0.117,0.1217,0,0,0,0,0,0.1081,0.1083,0.1102,0.1096,0.11,0.1118,0.1121,0.1133,0.1143,0.1147,0.1159,0.1168,0.1172,0.1174,0.1179,0.1171,0.1174,0.1165,0.1162,0.1159,0.1157,0.1154,0.115,0.1191,0.1191,0.1191,0,0,0.1065,0.1078,0.1078,0.109,0.1099,0.11,0.1121,0.1122,0.1124,0.1147,0.1146,0.1155,0.1167,0.1162,0.116,0.1168,0.1147,0.1157,0.1155,0.1155,0.1152,0.1148,0.1145,0.1189,0.119,0.119,0,0,0.1039,0.1048,0.1044,0.1053,0.1066,0.1078,0.1077,0.1094,0.1101,0.1101,0.1119,0.1121,0.1127,0.1135,0.1139,0.1116,0.1129,0.1117,0.1099,0.1095,0.1092,0.109,0.1081,0.1078,0.1116,0.1116,0.1116,0,0.1018,0.1021,0.104,0.104,0.1045,0.1068,0.1064,0.1071,0.1084,0.1087,0.1096,0.1105,0.1114,0.1111,0.1106,0.1109,0.1108,0.1115,0.1091,0.1089,0.1086,0.1079,0.1076,0.1114,0.1114,0.1114,0.1115,0,0.0995,0.0998,0.0993,0.1006,0.1011,0.1008,0.1027,0.1029,0.1041,0.1052,0.1052,0.1064,0.1072,0.1072,0.1083,0.1071,0.1076,0.1088,0.1103,0.1081,0.1074,0.1071,0.1112,0.1112,0.1113,0.1113,0,0,0.0949,0.0974,0.0972,0.0978,0.0995,0.0997,0.0996,0.1004,0.1005,0.1014,0.1014,0.1019,0.1031,0.1036,0.1048,0.1045,0.1027,0.1058,0.1059,0.1052,0.1014,0.1005,0.1001,0.1036,0.1035,0.1035,0.1013,0,0.0925,0.0925,0.0943,0.0938,0.094,0.0962,0.0961,0.0971,0.0982,0.0985,0.0997,0.1001,0.1016,0.1019,0.1017,0.1029,0.1019,0.1031,0.1035,0.1035,0.1031,0.0998,0.0987,0.0966,0.1011,0.101,0.101,0,0.0897,0.0905,0.09,0.0918,0.092,0.0919,0.0928,0.0931,0.0943,0.0951,0.0957,0.0972,0.0972,0.0987,0.0988,0.0995,0.0998,0.1004,0.1004,0.1005,0.1021,0.0997,0.096,0.0956,0.1006,0.1006,0.1006,0,0.0863,0.0873,0.0872,0.0877,0.0897,0.0896,0.0904,0.0917,0.0921,0.0929,0.0932,0.094,0.0944,0.0949,0.0965,0.0975,0.0964,0.098,0.097,0.097,0.0967,0.0967,0.0929,0.0969,0.0969,0.0969,0.0969,0,0.0835,0.0831,0.0857,0.0856,0.0853,0.0873,0.0869,0.088,0.0891,0.0892,0.0912,0.0913,0.0934,0.0938,0.095,0.0949,0.0951,0.0957,0.096,0.0955,0.0954,0.0957,0.0958,0.0968,0.0968,0.0969,0.0969,0,0.0796,0.0814,0.0814,0.0834,0.0839,0.0835,0.0852,0.0852,0.0864,0.0866,0.0867,0.0887,0.0892,0.0909,0.0918,0.0926,0.0921,0.0927,0.0917,0.0919,0.0908,0.0909,0.0871,0.0867,0.0909,0.0909,0.0908,0,0.0777,0.0774,0.0794,0.0797,0.0805,0.0808,0.0813,0.0833,0.0837,0.0851,0.0849,0.0856,0.0862,0.0869,0.0883,0.089,0.0897,0.0884,0.0898,0.0893,0.0897,0.0897,0.0897,0.088,0.0879,0.0879,0.0879,0,0.074,0.0749,0.0755,0.0764,0.0769,0.0777,0.0786,0.0787,0.0809,0.0813,0.0818,0.0823,0.0833,0.0839,0.0849,0.0857,0.0871,0.0874,0.0872,0.0866,0.086,0.0863,0.0908,0.0875,0.0875,0.0875,0.0875,0.0876,0.071,0.0709,0.0723,0.0729,0.0739,0.0747,0.0748,0.0761,0.0766,0.0776,0.0788,0.0792,0.0804,0.0819,0.0826,0.083,0.0838,0.0835,0.0834,0.0833,0.083,0.086,0.0832,0.0832,0.0832,0.0832,0.0832,0,0.0674,0.0684,0.069,0.0702,0.0707,0.0721,0.0732,0.0735,0.0739,0.075,0.0756,0.0763,0.0769,0.0785,0.0792,0.0792,0.0799,0.0794,0.0794,0.0795,0.0823,0.0824,0.0788,0.0788,0.0788,0.0788,0.0788,0.0788,0.0656,0.0655,0.0666,0.0671,0.0681,0.0686,0.0691,0.0699,0.0707,0.0714,0.072,0.073,0.0743,0.0752,0.0759,0.0763,0.0765,0.0757,0.0764,0.0789,0.0793,0.0797,0.0798,0.0758,0.0758,0.0736,0.0736,0.0736]},{"header":{"parameterUnit":"m.s-1","parameterCategory":1,"la1":30.2991,"la2":30.254,"lo1":-89.0895,"lo2":-89.0444,"dy":0.0017,"dx":0.0017,"nx":28,"ny":28,"refTime":"2023-10-29T21:00:00:Z","depth":0,"parameterNumber":3,"parameterNumberName":"V-component_of_WINDS"},"data":[0,0,0,0,0,0,0,0,0,0,0,0,0,0,0,0,0,0,0,0,0,0,0,0,0,0,0,0,0,0,0,0,0,0,0,0,0,0,0,0,0,0,0,0,0,0,0,0,0,0,0,0,0,0,0,0,0,0,-1.9123,-1.9123,0,-1.9185,-1.9186,-1.9187,-1.92,-1.9199,-1.9199,-1.9199,-1.9258,-1.926,-1.9262,0,0,0,0,0,0,0,0,0,0,0,0,0,-1.9011,-1.9013,-1.9123,-1.9123,-1.9124,-1.9185,-1.9186,-1.9187,-1.92,-1.9199,-1.9199,-1.9198,-1.9258,-1.926,-1.9263,0,0,0,0,0,0,0,0,0,0,0,0,0,-1.9065,-1.9014,-1.9122,-1.9138,-1.914,-1.9185,-1.9186,-1.9187,-1.92,-1.9199,-1.9199,-1.9198,-1.9257,-1.926,-1.9263,-1.9295,0,0,-1.9272,-1.9273,0,0,0,0,0,0,0,0,-1.9062,-1.9069,-1.9135,-1.9137,-1.914,-1.9184,-1.9169,-1.9223,-1.92,-1.9177,-1.9199,-1.9198,-1.9234,-1.9239,-1.9252,-1.9298,-1.93,-1.9272,-1.9274,-1.9276,-1.9276,0,0,0,0,0,0,0,-1.9058,-1.9067,-1.9147,-1.9136,-1.9139,-1.9141,-1.9148,-1.9179,-1.9208,-1.9179,-1.918,-1.9188,-1.9235,-1.9249,-1.9253,-1.9301,-1.9272,-1.9275,-1.9277,-1.9278,-1.9378,-1.9378,0,0,0,0,0,0,-1.9052,-1.9063,-1.9145,-1.9149,-1.9099,-1.9144,-1.9151,-1.917,-1.9208,-1.9213,-1.9188,-1.9188,-1.9244,-1.925,-1.9256,-1.9297,-1.9276,-1.9278,-1.928,-1.9377,-1.9378,-1.9379,0,0,0,0,0,0,-1.905,-1.9059,-1.9143,-1.9107,-1.9117,-1.9146,-1.9168,-1.9172,-1.9186,-1.9215,-1.922,-1.9197,-1.9244,-1.9251,-1.9286,-1.9299,-1.928,-1.9282,-1.9376,-1.9377,-1.9378,-1.9378,0,0,0,0,0,0,-1.9047,-1.9059,-1.9072,-1.9107,-1.9119,-1.9173,-1.9168,-1.9174,-1.9192,-1.9192,-1.9225,-1.923,-1.9244,-1.9281,-1.9289,-1.9303,-1.9285,-1.9375,-1.9376,-1.9378,-1.9377,-1.9379,-1.9381,0,0,0,0,0,-1.9043,-1.9068,-1.9072,-1.9082,-1.9137,-1.9173,-1.918,-1.9198,-1.9193,-1.9206,-1.9225,-1.9229,-1.9296,-1.9285,-1.9293,-1.9308,-1.9374,-1.9376,-1.9378,-1.9376,-1.9379,-1.9381,0,0,0,0,0,0,-1.9032,-1.9073,-1.9078,-1.9116,-1.9141,-1.9176,-1.9193,-1.92,-1.9226,-1.9225,-1.9243,-1.9251,-1.9284,-1.9299,-1.9286,-1.9342,-1.9335,-1.9338,-1.9331,-1.9333,-1.9335,-1.9331,-1.9287,0,0,0,0,0,-1.9034,-1.9062,-1.9096,-1.9126,-1.9138,-1.9163,-1.918,-1.9191,-1.9218,-1.9228,-1.9249,-1.9274,-1.9301,-1.9318,-1.9344,-1.9379,-1.9387,-1.9394,-1.9396,-1.9397,-1.94,-1.9421,-1.9425,-1.9385,-1.9385,-1.9385,0,0,-1.9038,-1.9064,-1.908,-1.9124,-1.9145,-1.9173,-1.9172,-1.9201,-1.9221,-1.9232,-1.9266,-1.9283,-1.9311,-1.9347,-1.9363,-1.936,-1.9413,-1.94,-1.9401,-1.9403,-1.9423,-1.9427,-1.943,-1.9386,-1.9386,-1.9386,0,0,-1.9061,-1.9083,-1.9112,-1.9133,-1.9166,-1.9182,-1.9189,-1.9223,-1.9235,-1.927,-1.9279,-1.9303,-1.9348,-1.9369,-1.9385,-1.9416,-1.9421,-1.9424,-1.9434,-1.9454,-1.9458,-1.946,-1.9472,-1.9476,-1.9427,-1.9427,-1.9427,0,-1.9062,-1.9105,-1.9125,-1.9154,-1.9173,-1.9186,-1.9214,-1.9233,-1.9272,-1.9284,-1.9281,-1.934,-1.9359,-1.94,-1.9408,-1.9421,-1.9429,-1.942,-1.9456,-1.9459,-1.9462,-1.9473,-1.9478,-1.9427,-1.9427,-1.9427,-1.9427,0,-1.9105,-1.9135,-1.9154,-1.9193,-1.9214,-1.9242,-1.9265,-1.9284,-1.9294,-1.931,-1.9346,-1.9371,-1.9403,-1.9413,-1.9421,-1.9455,-1.9453,-1.9452,-1.9446,-1.9466,-1.9477,-1.9481,-1.9427,-1.9427,-1.9427,-1.9427,0,0,-1.9122,-1.9173,-1.918,-1.9198,-1.9236,-1.9258,-1.9287,-1.932,-1.9336,-1.9362,-1.9387,-1.9426,-1.9426,-1.9445,-1.9456,-1.9473,-1.9498,-1.9471,-1.9472,-1.9476,-1.9537,-1.9537,-1.9542,-1.9501,-1.9502,-1.9503,-1.9535,0,-1.9149,-1.9204,-1.9222,-1.9266,-1.9294,-1.9307,-1.9332,-1.9357,-1.9374,-1.9399,-1.9417,-1.9445,-1.9443,-1.9454,-1.9472,-1.9491,-1.951,-1.9489,-1.9524,-1.9525,-1.9517,-1.9548,-1.9548,-1.9577,-1.9539,-1.954,-1.954,0,-1.9189,-1.9218,-1.9265,-1.9301,-1.9313,-1.9335,-1.9368,-1.9392,-1.942,-1.9431,-1.9453,-1.9463,-1.9493,-1.9485,-1.9526,-1.9511,-1.9526,-1.9538,-1.9539,-1.9543,-1.9534,-1.9553,-1.9586,-1.9591,-1.9547,-1.9547,-1.9546,0,-1.9197,-1.9248,-1.9283,-1.9299,-1.934,-1.9356,-1.9374,-1.9402,-1.9421,-1.9449,-1.9461,-1.9491,-1.9507,-1.953,-1.9548,-1.954,-1.9588,-1.9581,-1.9597,-1.9597,-1.9607,-1.9606,-1.9644,-1.9616,-1.9616,-1.9616,-1.9616,0,-1.9226,-1.9255,-1.9288,-1.931,-1.9342,-1.9363,-1.9394,-1.9413,-1.9438,-1.9463,-1.9475,-1.9497,-1.952,-1.9545,-1.9559,-1.9592,-1.9598,-1.9608,-1.9611,-1.9607,-1.9606,-1.9617,-1.9616,-1.9617,-1.9617,-1.9617,-1.9616,0,-1.9241,-1.9264,-1.9304,-1.9341,-1.9351,-1.9373,-1.9404,-1.9425,-1.9443,-1.9474,-1.9483,-1.951,-1.9541,-1.9561,-1.9599,-1.9609,-1.9644,-1.9647,-1.9635,-1.9637,-1.9653,-1.9651,-1.9699,-1.9707,-1.9674,-1.9674,-1.9674,0,-1.9258,-1.9281,-1.9321,-1.9339,-1.9358,-1.9387,-1.9407,-1.9429,-1.9449,-1.9484,-1.9501,-1.9533,-1.956,-1.9608,-1.963,-1.966,-1.9663,-1.9678,-1.9668,-1.9663,-1.9664,-1.9663,-1.9666,-1.968,-1.968,-1.968,-1.9681,0,-1.9286,-1.9297,-1.9327,-1.936,-1.9385,-1.9412,-1.9438,-1.9452,-1.9478,-1.95,-1.9533,-1.9554,-1.9594,-1.9626,-1.9658,-1.9675,-1.9682,-1.9684,-1.9689,-1.9686,-1.9678,-1.9683,-1.964,-1.9683,-1.9682,-1.9682,-1.9682,-1.9682,-1.9303,-1.9325,-1.9357,-1.9389,-1.9412,-1.9437,-1.946,-1.9481,-1.9509,-1.9545,-1.9555,-1.959,-1.9618,-1.9662,-1.968,-1.9706,-1.9704,-1.9712,-1.9714,-1.9716,-1.9716,-1.9674,-1.9712,-1.9712,-1.9712,-1.9712,-1.9712,0,-1.9333,-1.9354,-1.9384,-1.9423,-1.9448,-1.9455,-1.9485,-1.9505,-1.9536,-1.9563,-1.959,-1.9627,-1.9658,-1.9683,-1.9715,-1.9731,-1.9735,-1.9739,-1.9738,-1.9742,-1.9716,-1.9708,-1.9735,-1.9735,-1.9735,-1.9735,-1.9735,-1.9735,-1.9351,-1.9388,-1.9403,-1.9451,-1.9472,-1.9507,-1.9524,-1.9547,-1.9569,-1.9611,-1.9638,-1.9655,-1.9681,-1.9715,-1.9743,-1.975,-1.9761,-1.9764,-1.9771,-1.9746,-1.9744,-1.9741,-1.9734,-1.9766,-1.9766,-1.9795,-1.9795,-1.9795]}]]